Flag for Canada Weather past 2 weeks in St. Catharines, Ontario, Canada

Now
47 °F

Cool.


Feels Like: 46 °F
Forecast: 44 / 56 °F
Wind: 3 mph from North

Location: Port Colborne Airport

Current Time: Oct 20, 2014 at 4:30:37 AM

Latest Report: Oct 20, 2014 at 4:00 AM


Visibility: N/A

Pressure: 29.98 "Hg

Humidity: 65%

Dew point: 35 °F

Location of St. CatharinesLocation

Historic Weather in St. Catharines — Graph

°F

St. Catharines temperature yesterday

Maximum temperature yesterday: 49 °F (at 9:00 PM)
Minimum temperature yesterday: 39 °F (at 10:00 AM)
Average temperature yesterday: 43 °F

Past Weeks' High & Low Weather Summary

 TemperatureHumidityPressure
High72 °F (Oct 14, 4:00 PM)96% (Oct 16, 7:00 AM)30.29 "Hg (Oct 16, 7:00 AM)
Low39 °F (Oct 19, 10:00 AM)35% (Oct 12, 5:00 PM)29.52 "Hg (Oct 17, 11:00 PM)
Average55 °F69%29.89 "Hg
* Reported Oct 5 3:00 AM — Oct 20 3:00 AM, St. Catharines, Weather by CustomWeather, © 2014

Note: Actual official high and low records may vary slightly from our data, if they occured in-between our weather recording intervals... More about our weather records

Advertising

St. Catharines weather history for previous 24 hours

 ConditionsComfort  
Time TempWeatherWind HumidityBarometerVisibility
3:00 AM
Oct 20
47 °FCool.8 mph67%30.00 "HgN/A
2:00 AM47 °FCool.6 mph71%30.00 "HgN/A
1:00 AM49 °FCool.9 mph68%30.00 "HgN/A
11:00 PM
Oct 19
47 °FCool.8 mph67%30.03 "HgN/A
10:00 PM46 °FCool.10 mph67%30.04 "HgN/A
9:00 PM49 °FCool.20 mph60%30.05 "HgN/A
8:00 PM49 °FCool.18 mph60%30.06 "HgN/A
7:00 PM48 °FCool.18 mph57%30.07 "HgN/A
6:00 PM48 °FCool.18 mph58%30.08 "HgN/A
5:00 PM46 °FCool.18 mph65%30.09 "HgN/A
4:00 PM46 °FCool.20 mph55%30.10 "HgN/A
3:00 PM45 °FCool.17 mph59%30.11 "HgN/A
2:00 PM44 °FQuite cool.10 mph59%30.12 "HgN/A
1:00 PM42 °FQuite cool.9 mph52%30.14 "HgN/A
12:00 PM41 °FQuite cool.8 mph53%30.15 "HgN/A
11:00 AM40 °FQuite cool.8 mph58%30.15 "HgN/A
10:00 AM39 °FChilly.9 mph59%30.16 "HgN/A
9:00 AM40 °FChilly.9 mph62%30.14 "HgN/A
8:00 AM40 °FChilly.13 mph60%30.12 "HgN/A
7:00 AM40 °FQuite cool.13 mph56%30.11 "HgN/A
6:00 AM40 °FQuite cool.12 mph61%30.09 "HgN/A
5:00 AM41 °FQuite cool.12 mph61%30.06 "HgN/A
4:00 AM41 °FQuite cool.10 mph68%30.05 "HgN/A
Weather by CustomWeather, © 2014

See weather overviewHow to use our weather pages